M0ZPG Weather Reports


Display with metric or nautical units.
time (UTC)temp
F
wind
direction
speed
MPH
gust
MPH
rain 1hr
in
rain 24hr
in
rain mn
in
humidity
%
barometer
mb
20260508141113 65 70 2.0 7.0 0.00 0.00 0.00 55 1015.3
20260508140006 65 35 1.0 6.0 0.00 0.00 0.00 56 1015.2
20260508135405 64 64 1.0 6.0 0.00 0.00 0.00 55 1015.2
20260508134503 64 117 1.0 4.0 0.00 0.00 0.00 56 1015.3
20260508133816 63 117 1.0 4.0 0.00 0.00 0.00 56 1015.2
20260508132703 63 130 1.0 5.0 0.00 0.00 0.00 56 1015.4
20260508132016 63 148 1.0 5.0 0.00 0.00 0.00 55 1015.5
20260508130903 64 149 0.0 5.0 0.00 0.00 0.00 56 1015.7
20260508130005 64 149 0.0 2.0 0.00 0.00 0.00 55 1015.8
20260508125617 63 149 0.0 3.0 0.00 0.00 0.00 55 1015.9
20260508124505 63 155 1.0 5.0 0.00 0.00 0.00 55 1015.8
20260508123817 62 159 1.0 4.0 0.00 0.00 0.00 57 1015.9
20260508122703 62 161 1.0 4.0 0.00 0.00 0.00 58 1015.9
20260508121803 61 151 1.0 4.0 0.00 0.00 0.00 59 1015.9
20260508121114 61 142 1.0 4.0 0.00 0.00 0.00 59 1015.9
20260508120005 61 144 1.0 4.0 0.00 0.00 0.00 60 1016.0
20260508115404 61 136 1.0 4.0 0.00 0.00 0.00 61 1016.0
20260508114503 61 129 1.0 3.0 0.00 0.00 0.00 62 1016.0
20260508113605 61 139 1.0 4.0 0.00 0.00 0.00 61 1016.0
20260508112705 61 136 1.0 2.0 0.00 0.00 0.00 61 1016.0
20260508111803 61 119 1.0 6.0 0.00 0.00 0.00 60 1016.0
20260508110903 61 114 2.0 6.0 0.00 0.00 0.00 61 1015.9
20260508110004 61 125 1.0 6.0 0.00 0.00 0.00 59 1016.0
20260508105403 61 102 2.0 6.0 0.00 0.00 0.00 61 1015.9
20260508104506 61 126 1.0 7.0 0.00 0.00 0.00 61 1015.9
20260508103818 61 162 2.0 5.0 0.00 0.00 0.00 59 1016.0
20260508102705 61 127 1.0 3.0 0.00 0.00 0.00 60 1015.9
20260508101805 61 111 2.0 7.0 0.00 0.00 0.00 59 1016.0
20260508100904 62 154 1.0 5.0 0.00 0.00 0.00 60 1016.0
20260508100212 62 148 1.0 4.0 0.00 0.00 0.00 60 1016.0
20260508095403 62 88 2.0 7.0 0.00 0.00 0.00 61 1015.9
20260508094505 62 93 2.0 8.0 0.00 0.00 0.00 62 1015.9
20260508093605 62 92 2.0 8.0 0.00 0.00 0.00 61 1015.8
20260508092703 62 99 2.0 7.0 0.00 0.00 0.00 60 1015.9
20260508091803 62 114 2.0 5.0 0.00 0.00 0.00 63 1015.7
20260508090905 61 129 2.0 8.0 0.00 0.00 0.00 63 1015.9
20260508090218 61 120 2.0 6.0 0.00 0.00 0.00 64 1015.8
20260508085403 61 108 1.0 6.0 0.00 0.00 0.00 68 1015.8
20260508084717 60 90 2.0 6.0 0.00 0.00 0.00 70 1015.9
20260508083603 59 99 2.0 7.0 0.00 0.00 0.00 71 1015.8
20260508082704 58 76 2.0 8.0 0.00 0.00 0.00 72 1015.7
20260508081803 58 90 2.0 8.0 0.00 0.00 0.00 74 1015.7
20260508081116 57 83 2.0 8.0 0.00 0.00 0.00 74 1015.8
20260508080005 56 88 2.0 7.0 0.00 0.00 0.00 76 1015.7
20260508075405 55 82 2.0 7.0 0.00 0.00 0.00 78 1015.7
20260508074505 54 91 1.0 4.0 0.00 0.00 0.00 80 1015.5
20260508073603 53 93 2.0 8.0 0.00 0.00 0.00 80 1015.5
20260508072917 53 91 2.0 8.0 0.00 0.00 0.00 81 1015.5
20260508071805 52 85 1.0 5.0 0.00 0.00 0.00 83 1015.4
20260508071117 52 87 1.0 6.0 0.00 0.00 0.00 83 1015.4
20260508070005 51 79 1.0 3.0 0.00 0.00 0.00 84 1015.5
20260508065403 50 81 1.0 3.0 0.00 0.00 0.00 84 1015.5
20260508064505 50 86 0.0 3.0 0.00 0.00 0.00 85 1015.4
20260508063603 49 87 1.0 3.0 0.00 0.00 0.00 86 1015.4
20260508062918 49 88 1.0 3.0 0.00 0.00 0.00 86 1015.4
20260508061804 49 89 1.0 3.0 0.00 0.00 0.00 86 1015.4
20260508061118 49 92 1.0 3.0 0.00 0.00 0.00 87 1015.4
20260508060005 48 92 0.0 2.0 0.00 0.00 0.00 88 1015.3
20260508055405 48 93 0.0 2.0 0.00 0.00 0.00 88 1015.2
20260508054504 48 93 1.0 3.0 0.00 0.00 0.00 89 1015.1
20260508053605 47 95 1.0 4.0 0.00 0.00 0.00 89 1015.1
20260508052705 47 96 0.0 2.0 0.00 0.00 0.00 90 1015.0
20260508051804 47 96 0.0 2.0 0.00 0.00 0.00 90 1015.1
20260508050905 47 96 0.0 2.0 0.00 0.00 0.00 90 1015.0
20260508050005 46 96 1.0 3.0 0.00 0.00 0.00 91 1015.0
20260508045405 46 96 1.0 3.0 0.00 0.00 0.00 91 1014.9
20260508044503 46 96 0.0 2.0 0.00 0.00 0.00 91 1014.8
20260508043603 45 96 0.0 3.0 0.00 0.00 0.00 91 1014.7
20260508042919 45 97 0.0 3.0 0.00 0.00 0.00 92 1014.8
20260508041805 45 96 0.0 1.0 0.00 0.00 0.00 91 1014.8
20260508040903 44 0 0.0 0.0 0.00 0.00 0.00 91 1014.7
20260508040004 45 0 0.0 0.0 0.00 0.00 0.00 91 1014.7
20260508035618 45 0 0.0 0.0 0.00 0.00 0.00 91 1014.7
20260508034505 44 0 0.0 0.0 0.00 0.00 0.00 91 1014.6
20260508033604 44 0 0.0 0.0 0.00 0.00 0.00 91 1014.8
20260508032920 45 97 0.0 1.0 0.00 0.00 0.00 91 1014.7
20260508031803 45 0 0.0 0.0 0.00 0.00 0.00 90 1014.7
20260508030903 45 0 0.0 0.0 0.00 0.00 0.00 90 1014.8
20260508030005 45 0 0.0 0.0 0.00 0.00 0.00 91 1014.8
20260508025405 45 96 0.0 1.0 0.00 0.00 0.00 91 1014.8
20260508024503 44 96 0.0 1.0 0.00 0.00 0.00 90 1014.8
20260508023605 44 0 0.0 0.0 0.00 0.00 0.00 90 1014.9
20260508022703 44 0 0.0 0.0 0.00 0.00 0.00 89 1014.9
20260508021805 44 0 0.0 0.0 0.00 0.00 0.00 89 1014.9
20260508020903 45 0 0.0 0.0 0.00 0.00 0.00 88 1014.9
20260508020003 45 0 0.0 0.0 0.00 0.00 0.00 88 1014.9
20260508015405 45 0 0.0 0.0 0.00 0.00 0.00 88 1015.0
20260508014717 46 0 0.0 0.0 0.00 0.00 0.00 88 1015.0
20260508013603 46 97 0.0 1.0 0.00 0.00 0.00 88 1015.1
20260508012703 46 0 0.0 0.0 0.00 0.00 0.00 87 1015.1
20260508011803 46 0 0.0 0.0 0.00 0.00 0.00 88 1015.1
20260508011116 47 96 0.0 1.0 0.00 0.00 0.00 88 1015.1
20260508010005 47 0 0.0 0.0 0.00 0.00 0.00 87 1015.0
20260508005403 47 0 0.0 0.0 0.00 0.00 0.00 87 1015.1
20260508004505 47 98 0.0 1.0 0.00 0.00 0.00 87 1015.1
20260508003814 47 98 0.0 1.0 0.00 0.00 0.00 86 1015.1
20260508002704 47 0 0.0 0.0 0.00 0.00 0.00 85 1015.2
20260508001803 48 97 0.0 1.0 0.00 0.00 0.00 85 1015.2
20260508000905 48 97 0.0 1.0 0.00 0.00 0.00 85 1015.2
20260508000006 49 97 0.0 1.0 0.00 0.00 0.00 84 1015.2
20260507235615 49 96 0.0 1.0 0.00 0.00 0.00 84 1015.2
20260507234504 49 0 0.0 0.0 0.00 0.00 0.00 83 1015.2
20260507233606 50 0 0.0 0.0 0.00 0.00 0.00 83 1015.2
20260507232705 50 96 0.0 1.0 0.00 0.00 0.00 82 1015.3
20260507231803 50 97 0.0 1.0 0.00 0.00 0.00 82 1015.4
20260507230903 51 97 0.0 1.0 0.00 0.00 0.00 81 1015.3
20260507230214 51 0 0.0 0.0 0.00 0.00 0.00 81 1015.2
20260507225405 51 0 0.0 0.0 0.00 0.00 0.00 80 1015.4
20260507224505 52 97 0.0 1.0 0.00 0.00 0.00 80 1015.5
20260507223603 52 97 0.0 3.0 0.00 0.00 0.00 80 1015.6
20260507222703 52 97 0.0 2.0 0.00 0.00 0.00 80 1015.5
20260507221806 52 97 0.0 2.0 0.00 0.00 0.00 79 1015.4
20260507220906 52 97 0.0 1.0 0.00 0.00 0.00 79 1015.5
20260507220004 52 97 0.0 2.0 0.00 0.00 0.00 79 1015.5
20260507215403 52 97 0.0 2.0 0.00 0.00 0.00 79 1015.6
20260507214714 52 97 0.0 2.0 0.00 0.00 0.00 79 1015.6
20260507213816 52 97 0.0 2.0 0.00 0.00 0.00 78 1015.6
20260507212705 53 97 0.0 2.0 0.00 0.00 0.00 78 1015.6
20260507211806 53 97 0.0 3.0 0.00 0.00 0.00 78 1015.6
20260507210905 53 98 0.0 2.0 0.00 0.00 0.00 77 1015.6
20260507210005 53 98 1.0 3.0 0.00 0.00 0.00 77 1015.5
20260507205405 53 98 0.0 3.0 0.00 0.00 0.00 77 1015.5
20260507204503 53 98 0.0 3.0 0.00 0.00 0.00 76 1015.4
20260507203604 53 101 1.0 6.0 0.00 0.00 0.00 76 1015.4
20260507202703 53 104 1.0 3.0 0.00 0.00 0.00 76 1015.4
20260507201806 54 104 1.0 3.0 0.00 0.00 0.00 75 1015.3
20260507200905 54 91 1.0 4.0 0.00 0.00 0.00 75 1015.2
20260507200216 54 93 0.0 4.0 0.00 0.00 0.00 75 1015.2
20260507195404 54 93 0.0 3.0 0.00 0.00 0.00 74 1015.0
20260507194503 54 98 1.0 6.0 0.00 0.00 0.00 74 1014.9
20260507193605 54 96 1.0 6.0 0.00 0.00 0.00 73 1014.8
20260507192705 54 98 1.0 7.0 0.00 0.00 0.00 73 1014.7
20260507191804 55 105 1.0 4.0 0.00 0.00 0.00 72 1014.8
20260507190903 55 94 2.0 8.0 0.00 0.00 0.00 72 1014.7
20260507190006 55 94 2.0 9.0 0.00 0.00 0.00 72 1014.7
20260507185613 55 94 2.0 9.0 0.00 0.00 0.00 72 1014.7
20260507184504 56 99 2.0 6.0 0.00 0.00 0.00 71 1014.7
20260507183604 56 87 2.0 8.0 0.00 0.00 0.00 71 1014.7
20260507182916 56 103 3.0 9.0 0.00 0.00 0.00 71 1014.6
20260507181803 56 97 2.0 7.0 0.00 0.00 0.00 70 1014.6
20260507180905 56 121 2.0 7.0 0.00 0.00 0.00 69 1014.6
20260507180005 57 130 2.0 6.0 0.00 0.00 0.00 68 1014.5
20260507175405 57 132 2.0 4.0 0.00 0.00 0.00 67 1014.5
20260507174716 57 128 2.0 6.0 0.00 0.00 0.00 66 1014.5
20260507173605 57 111 2.0 8.0 0.00 0.00 0.00 66 1014.4
20260507172916 58 122 2.0 8.0 0.00 0.00 0.00 66 1014.4
20260507171804 58 114 1.0 5.0 0.00 0.00 0.00 65 1014.5
20260507170904 58 159 2.0 6.0 0.00 0.00 0.00 63 1014.4
20260507170004 58 166 1.0 4.0 0.00 0.00 0.00 62 1014.4
20260507165406 58 165 2.0 5.0 0.00 0.00 0.00 61 1014.4
20260507164505 58 139 1.0 4.0 0.00 0.00 0.00 61 1014.4
20260507163605 58 151 1.0 5.0 0.00 0.00 0.00 61 1014.3
20260507162705 58 127 1.0 4.0 0.00 0.00 0.00 61 1014.4
20260507161805 59 128 1.0 4.0 0.00 0.00 0.00 61 1014.3
20260507160905 59 107 2.0 7.0 0.00 0.00 0.00 60 1014.4
20260507160005 59 139 2.0 8.0 0.00 0.00 0.00 60 1014.4
20260507155615 59 120 2.0 8.0 0.00 0.00 0.00 61 1014.4
20260507154504 59 117 1.0 8.0 0.00 0.00 0.00 63 1014.4
20260507153605 58 159 1.0 5.0 0.00 0.00 0.00 62 1014.3
20260507152917 58 142 1.0 5.0 0.00 0.00 0.00 61 1014.3
20260507151806 58 142 1.0 3.0 0.00 0.00 0.00 60 1014.4
20260507150905 58 144 1.0 2.0 0.00 0.00 0.00 60 1014.5
20260507150009 58 141 1.0 6.0 0.00 0.00 0.00 60 1014.5
20260507145405 59 103 2.0 6.0 0.00 0.00 0.00 60 1014.5
20260507144503 59 125 1.0 6.0 0.00 0.00 0.00 58 1014.5
20260507143603 59 146 1.0 5.0 0.00 0.00 0.00 59 1014.5
20260507142705 60 108 2.0 7.0 0.00 0.00 0.00 59 1014.6
20260507141803 60 88 2.0 8.0 0.00 0.00 0.00 59 1014.5